Time,TemperatureF,DewpointF,PressureIn,WindDirection,WindDirectionDegrees,WindSpeedMPH,WindSpeedGustMPH,Humidity,HourlyPrecipIn,Conditions,Clouds,dailyrainin,SoftwareType,DateUTC
2013-04-06 00:00:00,59.8,48.8,29.99,SSE,150,10.0,10.0,67,0.00,,,0.00,Wunderground v.1.15,2013-04-06 05:00:00,
2013-04-06 00:10:00,59.6,49.0,29.99,SSE,153,9.0,10.0,68,0.00,,,0.00,Wunderground v.1.15,2013-04-06 05:10:00,
2013-04-06 00:20:00,59.4,48.8,29.99,SSE,150,9.0,9.0,68,0.00,,,0.00,Wunderground v.1.15,2013-04-06 05:20:00,
2013-04-06 00:30:00,59.0,48.8,29.98,SE,146,8.0,8.0,69,0.00,,,0.00,Wunderground v.1.15,2013-04-06 05:30:00,
2013-04-06 00:40:00,58.3,48.6,29.98,SSE,150,8.0,8.0,70,0.00,,,0.00,Wunderground v.1.15,2013-04-06 05:40:00,
2013-04-06 00:50:00,57.7,48.7,29.98,SSE,153,7.0,7.0,72,0.00,,,0.00,Wunderground v.1.15,2013-04-06 05:50:00,
2013-04-06 01:10:00,57.3,48.7,29.98,SSE,165,7.0,7.0,73,0.00,,,0.00,Wunderground v.1.15,2013-04-06 06:10:00,
2013-04-06 01:20:00,57.5,48.5,29.97,SSE,163,7.0,8.0,72,0.00,,,0.00,Wunderground v.1.15,2013-04-06 06:20:00,
2013-04-06 01:30:00,57.4,48.4,29.97,SSE,163,6.0,6.0,72,0.00,,,0.00,Wunderground v.1.15,2013-04-06 06:30:00,
2013-04-06 01:40:00,57.1,48.2,29.96,SSE,161,6.0,7.0,72,0.00,,,0.00,Wunderground v.1.15,2013-04-06 06:40:00,
2013-04-06 01:50:00,56.7,48.1,29.96,SSE,158,7.0,7.0,73,0.00,,,0.00,Wunderground v.1.15,2013-04-06 06:50:00,
2013-04-06 02:00:00,55.9,48.1,29.96,SSE,155,6.0,6.0,75,0.00,,,0.00,Wunderground v.1.15,2013-04-06 07:00:00,
2013-04-06 02:10:00,55.4,48.0,29.95,SSE,155,3.0,4.0,76,0.00,,,0.00,Wunderground v.1.15,2013-04-06 07:10:00,
2013-04-06 02:30:00,55.7,48.2,29.94,SSE,147,6.0,9.0,76,0.00,,,0.00,Wunderground v.1.15,2013-04-06 07:30:00,
2013-04-06 02:40:00,55.8,48.3,29.93,SE,142,7.0,7.0,76,0.00,,,0.00,Wunderground v.1.15,2013-04-06 07:40:00,
2013-04-06 02:50:00,55.9,48.1,29.93,SSE,147,7.0,7.0,75,0.00,,,0.00,Wunderground v.1.15,2013-04-06 07:50:00,
2013-04-06 03:00:00,56.2,48.0,29.93,SE,145,7.0,7.0,74,0.00,,,0.00,Wunderground v.1.15,2013-04-06 08:00:00,
2013-04-06 03:10:00,56.1,47.9,29.93,SSE,150,4.0,4.0,74,0.00,,,0.00,Wunderground v.1.15,2013-04-06 08:10:00,
2013-04-06 03:20:00,56.0,48.2,29.93,SSE,150,4.0,4.0,75,0.00,,,0.00,Wunderground v.1.15,2013-04-06 08:20:00,
2013-04-06 03:30:00,55.8,48.3,29.92,SSE,151,5.0,5.0,76,0.00,,,0.00,Wunderground v.1.15,2013-04-06 08:30:00,
2013-04-06 03:40:00,55.8,48.0,29.92,SSE,152,4.0,4.0,75,0.00,,,0.00,Wunderground v.1.15,2013-04-06 08:40:00,
2013-04-06 03:50:00,55.9,48.1,29.92,SSE,154,2.0,2.0,75,0.00,,,0.00,Wunderground v.1.15,2013-04-06 08:50:00,
2013-04-06 04:00:00,55.9,48.1,29.92,SSE,154,2.0,2.0,75,0.00,,,0.00,Wunderground v.1.15,2013-04-06 09:00:00,
2013-04-06 04:10:00,55.5,48.1,29.92,SSE,154,1.0,4.0,76,0.00,,,0.00,Wunderground v.1.15,2013-04-06 09:10:00,
2013-04-06 04:20:00,55.1,48.0,29.90,SSE,153,4.0,4.0,77,0.00,,,0.00,Wunderground v.1.15,2013-04-06 09:20:00,
2013-04-06 04:30:00,55.0,47.9,29.90,SSE,152,5.0,5.0,77,0.00,,,0.00,Wunderground v.1.15,2013-04-06 09:30:00,
2013-04-06 04:40:00,55.1,48.0,29.90,SSE,152,4.0,4.0,77,0.00,,,0.00,Wunderground v.1.15,2013-04-06 09:40:00,
2013-04-06 04:50:00,55.0,47.9,29.91,SSE,153,3.0,5.0,77,0.00,,,0.00,Wunderground v.1.15,2013-04-06 09:50:00,
2013-04-06 05:00:00,54.6,47.9,29.91,SSE,153,4.0,5.0,78,0.00,,,0.00,Wunderground v.1.15,2013-04-06 10:00:00,
2013-04-06 05:10:00,54.7,47.6,29.91,SSE,158,5.0,6.0,77,0.00,,,0.00,Wunderground v.1.15,2013-04-06 10:10:00,
2013-04-06 05:20:00,54.8,48.1,29.91,SSE,164,5.0,5.0,78,0.00,,,0.00,Wunderground v.1.15,2013-04-06 10:20:00,
2013-04-06 05:30:00,54.8,48.1,29.92,SSE,168,5.0,7.0,78,0.00,,,0.00,Wunderground v.1.15,2013-04-06 10:30:00,
2013-04-06 05:40:00,54.9,47.8,29.92,SSE,166,5.0,5.0,77,0.00,,,0.00,Wunderground v.1.15,2013-04-06 10:40:00,
2013-04-06 05:50:00,54.8,47.7,29.92,SSE,165,4.0,5.0,77,0.00,,,0.00,Wunderground v.1.15,2013-04-06 10:50:00,
2013-04-06 06:00:00,54.5,48.1,29.92,SSE,165,4.0,5.0,79,0.00,,,0.00,Wunderground v.1.15,2013-04-06 11:00:00,
2013-04-06 06:10:00,54.2,47.8,29.92,SSE,165,4.0,4.0,79,0.00,,,0.00,Wunderground v.1.15,2013-04-06 11:10:00,
2013-04-06 06:30:00,53.7,48.0,29.91,SSE,165,2.0,2.0,81,0.00,,,0.00,Wunderground v.1.15,2013-04-06 11:30:00,
2013-04-06 06:40:00,53.5,47.8,29.91,SSE,163,4.0,6.0,81,0.00,,,0.00,Wunderground v.1.15,2013-04-06 11:40:00,
2013-04-06 06:50:00,53.3,47.6,29.91,SSE,163,5.0,5.0,81,0.00,,,0.00,Wunderground v.1.15,2013-04-06 11:50:00,
2013-04-06 07:00:00,53.1,47.7,29.91,SSE,163,4.0,4.0,82,0.00,,,0.00,Wunderground v.1.15,2013-04-06 12:00:00,
2013-04-06 07:10:00,52.8,47.5,29.91,SSE,163,4.0,4.0,82,0.00,,,0.00,Wunderground v.1.15,2013-04-06 12:10:00,
2013-04-06 07:20:00,52.4,47.4,29.91,SSE,163,1.0,1.0,83,0.00,,,0.00,Wunderground v.1.15,2013-04-06 12:20:00,
2013-04-06 07:30:00,51.9,46.9,29.91,SSE,163,0.0,0.0,83,0.00,,,0.00,Wunderground v.1.15,2013-04-06 12:30:00,
2013-04-06 07:40:00,51.7,47.0,29.92,SSE,163,1.0,1.0,84,0.00,,,0.00,Wunderground v.1.15,2013-04-06 12:40:00,
2013-04-06 07:50:00,51.7,47.0,29.92,SSE,163,1.0,1.0,84,0.00,,,0.00,Wunderground v.1.15,2013-04-06 12:50:00,
2013-04-06 08:00:00,51.5,47.1,29.92,SSE,163,1.0,1.0,85,0.00,,,0.00,Wunderground v.1.15,2013-04-06 13:00:00,
2013-04-06 08:10:00,52.2,47.8,29.92,SSE,163,1.0,1.0,85,0.00,,,0.00,Wunderground v.1.15,2013-04-06 13:10:00,
2013-04-06 08:20:00,53.0,48.0,29.92,SSE,163,1.0,4.0,83,0.00,,,0.00,Wunderground v.1.15,2013-04-06 13:20:00,
2013-04-06 08:30:00,53.8,47.8,29.92,SSE,164,2.0,2.0,80,0.00,,,0.00,Wunderground v.1.15,2013-04-06 13:30:00,
2013-04-06 08:40:00,54.4,48.0,29.92,SSE,165,4.0,4.0,79,0.00,,,0.00,Wunderground v.1.15,2013-04-06 13:40:00,
2013-04-06 08:50:00,55.2,48.5,29.92,South,173,6.0,6.0,78,0.00,,,0.00,Wunderground v.1.15,2013-04-06 13:50:00,
2013-04-06 09:00:00,56.1,48.3,29.92,South,181,6.0,6.0,75,0.00,,,0.00,Wunderground v.1.15,2013-04-06 14:00:00,
2013-04-06 09:10:00,57.0,48.1,29.93,South,186,6.0,6.0,72,0.00,,,0.00,Wunderground v.1.15,2013-04-06 14:10:00,
2013-04-06 09:20:00,58.2,48.1,29.93,SSW,200,4.0,12.0,69,0.00,,,0.00,Wunderground v.1.15,2013-04-06 14:20:00,
2013-04-06 09:30:00,59.4,47.6,29.92,SSE,167,8.0,9.0,65,0.00,,,0.00,Wunderground v.1.15,2013-04-06 14:30:00,
2013-04-06 09:40:00,60.1,47.5,29.92,SSW,208,9.0,9.0,63,0.00,,,0.00,Wunderground v.1.15,2013-04-06 14:40:00,
2013-04-06 09:50:00,61.0,48.3,29.92,SSW,208,10.0,10.0,63,0.00,,,0.00,Wunderground v.1.15,2013-04-06 14:50:00,
2013-04-06 10:00:00,61.9,48.7,29.92,South,176,9.0,12.0,62,0.00,,,0.00,Wunderground v.1.15,2013-04-06 15:00:00,
2013-04-06 10:10:00,62.6,47.6,29.91,SSW,202,12.0,12.0,58,0.00,,,0.00,Wunderground v.1.15,2013-04-06 15:10:00,
2013-04-06 10:20:00,63.4,48.4,29.91,South,186,11.0,11.0,58,0.00,,,0.00,Wunderground v.1.15,2013-04-06 15:20:00,
2013-04-06 10:30:00,64.2,48.2,29.91,South,179,13.0,17.0,56,0.00,,,0.00,Wunderground v.1.15,2013-04-06 15:30:00,
2013-04-06 10:40:00,64.8,48.2,29.91,South,182,13.0,15.0,55,0.00,,,0.00,Wunderground v.1.15,2013-04-06 15:40:00,
2013-04-06 10:50:00,65.7,49.1,29.90,SSW,202,14.0,15.0,55,0.00,,,0.00,Wunderground v.1.15,2013-04-06 15:50:00,
2013-04-06 11:00:00,66.5,48.8,29.91,SW,219,12.0,12.0,53,0.00,,,0.00,Wunderground v.1.15,2013-04-06 16:00:00,
2013-04-06 11:10:00,66.8,49.1,29.90,SSW,198,12.0,13.0,53,0.00,,,0.00,Wunderground v.1.15,2013-04-06 16:10:00,
2013-04-06 11:20:00,67.8,50.5,29.90,SSW,200,11.0,11.0,54,0.00,,,0.00,Wunderground v.1.15,2013-04-06 16:20:00,
2013-04-06 11:30:00,68.2,49.9,29.90,SSW,200,11.0,11.0,52,0.00,,,0.00,Wunderground v.1.15,2013-04-06 16:30:00,
2013-04-06 11:40:00,69.0,50.1,29.90,South,183,11.0,15.0,51,0.00,,,0.00,Wunderground v.1.15,2013-04-06 16:40:00,
2013-04-06 11:50:00,69.8,50.9,29.89,SW,217,10.0,10.0,51,0.00,,,0.00,Wunderground v.1.15,2013-04-06 16:50:00,
2013-04-06 12:00:00,70.6,51.1,29.89,South,187,10.0,12.0,50,0.00,,,0.00,Wunderground v.1.15,2013-04-06 17:00:00,
2013-04-06 12:10:00,70.6,51.1,29.89,SSW,194,13.0,13.0,50,0.00,,,0.00,Wunderground v.1.15,2013-04-06 17:10:00,
2013-04-06 12:20:00,71.0,52.0,29.88,South,188,12.0,12.0,51,0.00,,,0.00,Wunderground v.1.15,2013-04-06 17:20:00,
2013-04-06 12:30:00,72.1,53.0,29.88,South,175,10.0,17.0,51,0.00,,,0.00,Wunderground v.1.15,2013-04-06 17:30:00,
2013-04-06 12:40:00,72.4,52.2,29.87,South,186,11.0,11.0,49,0.00,,,0.00,Wunderground v.1.15,2013-04-06 17:40:00,
2013-04-06 12:50:00,73.5,54.3,29.87,SSW,193,11.0,19.0,51,0.00,,,0.00,Wunderground v.1.15,2013-04-06 17:50:00,
2013-04-06 13:00:00,74.1,53.2,29.86,SSW,208,10.0,10.0,48,0.00,,,0.00,Wunderground v.1.15,2013-04-06 18:00:00,
2013-04-06 13:10:00,74.2,53.8,29.86,SW,231,10.0,10.0,49,0.00,,,0.00,Wunderground v.1.15,2013-04-06 18:10:00,
2013-04-06 13:20:00,74.6,54.7,29.86,South,185,10.0,20.0,50,0.00,,,0.00,Wunderground v.1.15,2013-04-06 18:20:00,
2013-04-06 13:30:00,75.2,55.3,29.86,South,190,10.0,10.0,50,0.00,,,0.00,Wunderground v.1.15,2013-04-06 18:30:00,
2013-04-06 13:40:00,75.5,53.9,29.85,South,185,9.0,9.0,47,0.00,,,0.00,Wunderground v.1.15,2013-04-06 18:40:00,
2013-04-06 13:50:00,76.1,55.0,29.85,South,189,7.0,7.0,48,0.00,,,0.00,Wunderground v.1.15,2013-04-06 18:50:00,
2013-04-06 14:00:00,77.2,54.8,29.84,SW,214,7.0,7.0,46,0.00,,,0.00,Wunderground v.1.15,2013-04-06 19:00:00,
2013-04-06 14:10:00,78.0,56.1,29.83,South,174,9.0,15.0,47,0.00,,,0.00,Wunderground v.1.15,2013-04-06 19:10:00,
2013-04-06 14:20:00,77.6,55.2,29.83,South,180,11.0,11.0,46,0.00,,,0.00,Wunderground v.1.15,2013-04-06 19:20:00,
2013-04-06 14:30:00,78.4,55.3,29.83,SSW,207,8.0,8.0,45,0.00,,,0.00,Wunderground v.1.15,2013-04-06 19:30:00,
2013-04-06 14:40:00,79.1,54.0,29.82,SSW,209,6.0,6.0,42,0.00,,,0.00,Wunderground v.1.15,2013-04-06 19:40:00,
2013-04-06 14:50:00,79.3,54.9,29.81,South,182,8.0,11.0,43,0.00,,,0.00,Wunderground v.1.15,2013-04-06 19:50:00,
2013-04-06 15:00:00,79.8,54.7,29.80,SSW,204,8.0,8.0,42,0.00,,,0.00,Wunderground v.1.15,2013-04-06 20:00:00,
2013-04-06 15:10:00,80.6,56.0,29.80,South,184,6.0,9.0,43,0.00,,,0.00,Wunderground v.1.15,2013-04-06 20:10:00,
2013-04-06 15:20:00,80.1,54.9,29.80,SSW,212,8.0,8.0,42,0.00,,,0.00,Wunderground v.1.15,2013-04-06 20:20:00,
2013-04-06 15:30:00,80.6,54.0,29.80,SSW,206,8.0,8.0,40,0.00,,,0.00,Wunderground v.1.15,2013-04-06 20:30:00,
2013-04-06 15:40:00,80.8,53.5,29.79,SSW,200,6.0,6.0,39,0.00,,,0.00,Wunderground v.1.15,2013-04-06 20:40:00,
2013-04-06 15:50:00,81.1,56.5,29.78,South,177,6.0,10.0,43,0.00,,,0.00,Wunderground v.1.15,2013-04-06 20:50:00,
2013-04-06 16:00:00,81.0,54.4,29.78,SSE,165,9.0,11.0,40,0.00,,,0.00,Wunderground v.1.15,2013-04-06 21:00:00,
2013-04-06 16:10:00,81.6,55.6,29.77,SSW,202,9.0,9.0,41,0.00,,,0.00,Wunderground v.1.15,2013-04-06 21:10:00,
2013-04-06 16:20:00,81.8,55.8,29.77,South,181,8.0,8.0,41,0.00,,,0.00,Wunderground v.1.15,2013-04-06 21:20:00,
2013-04-06 16:30:00,81.5,56.2,29.76,SSW,195,10.0,10.0,42,0.00,,,0.00,Wunderground v.1.15,2013-04-06 21:30:00,
2013-04-06 16:40:00,81.8,56.5,29.76,South,173,6.0,12.0,42,0.00,,,0.00,Wunderground v.1.15,2013-04-06 21:40:00,
2013-04-06 16:50:00,81.9,55.9,29.75,SSW,198,8.0,9.0,41,0.00,,,0.00,Wunderground v.1.15,2013-04-06 21:50:00,
2013-04-06 17:00:00,82.3,58.2,29.75,South,184,7.0,11.0,44,0.00,,,0.00,Wunderground v.1.15,2013-04-06 22:00:00,
2013-04-06 17:10:00,81.6,57.6,29.75,South,182,11.0,15.0,44,0.00,,,0.00,Wunderground v.1.15,2013-04-06 22:10:00,
2013-04-06 17:20:00,81.1,57.1,29.75,South,186,10.0,11.0,44,0.00,,,0.00,Wunderground v.1.15,2013-04-06 22:20:00,
2013-04-06 17:30:00,81.3,58.5,29.75,South,171,8.0,16.0,46,0.00,,,0.00,Wunderground v.1.15,2013-04-06 22:30:00,
2013-04-06 17:40:00,80.2,58.1,29.75,SSW,198,10.0,10.0,47,0.00,,,0.00,Wunderground v.1.15,2013-04-06 22:40:00,
2013-04-06 17:50:00,80.2,57.5,29.75,SSW,202,7.0,7.0,46,0.00,,,0.00,Wunderground v.1.15,2013-04-06 22:50:00,
2013-04-06 18:00:00,79.7,57.7,29.75,South,184,7.0,7.0,47,0.00,,,0.00,Wunderground v.1.15,2013-04-06 23:00:00,
2013-04-06 18:10:00,79.6,57.6,29.75,South,185,7.0,8.0,47,0.00,,,0.00,Wunderground v.1.15,2013-04-06 23:10:00,
2013-04-06 18:20:00,79.7,57.1,29.75,South,191,8.0,8.0,46,0.00,,,0.00,Wunderground v.1.15,2013-04-06 23:20:00,
2013-04-06 18:40:00,79.8,57.2,29.75,South,182,8.0,9.0,46,0.00,,,0.00,Wunderground v.1.15,2013-04-06 23:40:00,
2013-04-06 18:50:00,79.1,57.1,29.75,South,185,7.0,8.0,47,0.00,,,0.00,Wunderground v.1.15,2013-04-06 23:50:00,
2013-04-06 19:00:00,78.8,57.4,29.75,SSW,202,6.0,11.0,48,0.00,,,0.00,Wunderground v.1.15,2013-04-07 00:00:00,
2013-04-06 19:10:00,78.5,58.9,29.74,SSE,165,8.0,12.0,51,0.00,,,0.00,Wunderground v.1.15,2013-04-07 00:10:00,
2013-04-06 19:30:00,77.0,58.6,29.74,South,181,11.0,13.0,53,0.00,,,0.00,Wunderground v.1.15,2013-04-07 00:30:00,
2013-04-06 19:40:00,76.4,58.5,29.74,South,178,11.0,12.0,54,0.00,,,0.00,Wunderground v.1.15,2013-04-07 00:40:00,
2013-04-06 19:50:00,75.6,58.3,29.75,SSE,167,8.0,10.0,55,0.00,,,0.00,Wunderground v.1.15,2013-04-07 00:50:00,
2013-04-06 20:00:00,75.0,58.7,29.75,South,173,6.0,6.0,57,0.00,,,0.00,Wunderground v.1.15,2013-04-07 01:00:00,
2013-04-06 20:10:00,74.4,58.7,29.74,South,175,6.0,6.0,58,0.00,,,0.00,Wunderground v.1.15,2013-04-07 01:10:00,
2013-04-06 20:20:00,73.4,58.7,29.75,South,172,5.0,6.0,60,0.00,,,0.00,Wunderground v.1.15,2013-04-07 01:20:00,
2013-04-06 20:30:00,73.2,58.5,29.75,South,179,5.0,7.0,60,0.00,,,0.00,Wunderground v.1.15,2013-04-07 01:30:00,
2013-04-06 20:40:00,73.2,58.5,29.75,South,174,7.0,7.0,60,0.00,,,0.00,Wunderground v.1.15,2013-04-07 01:40:00,
2013-04-06 20:50:00,72.8,58.6,29.76,South,173,2.0,2.0,61,0.00,,,0.00,Wunderground v.1.15,2013-04-07 01:50:00,
2013-04-06 21:00:00,72.4,58.6,29.76,SSE,161,6.0,7.0,62,0.00,,,0.00,Wunderground v.1.15,2013-04-07 02:00:00,
2013-04-06 21:10:00,72.1,58.8,29.76,SSE,168,8.0,8.0,63,0.00,,,0.00,Wunderground v.1.15,2013-04-07 02:10:00,
2013-04-06 21:20:00,71.9,58.2,29.76,South,171,9.0,9.0,62,0.00,,,0.00,Wunderground v.1.15,2013-04-07 02:20:00,
2013-04-06 21:30:00,71.7,58.4,29.76,South,172,8.0,8.0,63,0.00,,,0.00,Wunderground v.1.15,2013-04-07 02:30:00,
2013-04-06 21:40:00,71.3,58.5,29.77,South,171,8.0,11.0,64,0.00,,,0.00,Wunderground v.1.15,2013-04-07 02:40:00,
2013-04-06 21:50:00,70.9,58.5,29.77,South,174,8.0,8.0,65,0.00,,,0.00,Wunderground v.1.15,2013-04-07 02:50:00,
2013-04-06 22:00:00,70.4,58.5,29.78,South,170,8.0,8.0,66,0.00,,,0.00,Wunderground v.1.15,2013-04-07 03:00:00,
2013-04-06 22:10:00,70.0,58.5,29.78,South,171,8.0,10.0,67,0.00,,,0.00,Wunderground v.1.15,2013-04-07 03:10:00,
2013-04-06 22:20:00,69.7,58.7,29.79,South,175,7.0,7.0,68,0.00,,,0.00,Wunderground v.1.15,2013-04-07 03:20:00,
2013-04-06 22:30:00,69.4,58.8,29.78,South,173,7.0,9.0,69,0.00,,,0.00,Wunderground v.1.15,2013-04-07 03:30:00,
2013-04-06 22:40:00,68.9,58.3,29.79,South,173,5.0,5.0,69,0.00,,,0.00,Wunderground v.1.15,2013-04-07 03:40:00,
2013-04-06 22:50:00,68.3,58.5,29.79,South,175,7.0,7.0,71,0.00,,,0.00,Wunderground v.1.15,2013-04-07 03:50:00,
2013-04-06 23:00:00,68.0,58.2,29.79,South,178,6.0,6.0,71,0.00,,,0.00,Wunderground v.1.15,2013-04-07 04:00:00,
2013-04-06 23:10:00,67.7,58.3,29.79,South,178,3.0,3.0,72,0.00,,,0.00,Wunderground v.1.15,2013-04-07 04:10:00,
2013-04-06 23:20:00,67.2,58.2,29.79,South,178,2.0,4.0,73,0.00,,,0.00,Wunderground v.1.15,2013-04-07 04:20:00,
2013-04-06 23:30:00,66.7,58.1,29.79,South,178,3.0,3.0,74,0.00,,,0.00,Wunderground v.1.15,2013-04-07 04:30:00,
2013-04-06 23:40:00,66.4,58.2,29.79,South,178,2.0,2.0,75,0.00,,,0.00,Wunderground v.1.15,2013-04-07 04:40:00,
2013-04-06 23:50:00,66.2,58.0,29.80,South,178,0.0,0.0,75,0.00,,,0.00,Wunderground v.1.15,2013-04-07 04:50:00,